Location: Shot Rock
(38.6247°N, 120.1956°W)
Time: 11:37:11
(UTC-08:00)

Envisat - Visible Passes

Search period start: 23 February 2019 00:00
Search period end: 05 March 2019 00:00
Orbit: 764 x 766 km, 98.2° (Epoch: 23 February)

Date Brightness Start Highest point End Pass type
(mag) Time Alt. Az. Time Alt. Az. Time Alt. Az.
23 Feb 6.5 06:10:59 10° ENE 06:13:04 12° E 06:15:09 10° ESE visible
23 Feb 3.6 19:00:33 10° S 19:05:32 60° W 19:10:34 10° NNW visible
24 Feb 3.0 18:23:52 10° SSE 18:28:50 60° ENE 18:33:49 10° N visible
24 Feb 6.0 20:05:29 10° SW 20:08:13 14° W 20:10:56 10° WNW visible
25 Feb 4.7 19:26:38 10° SSW 19:31:10 33° W 19:35:44 10° NNW visible
26 Feb 3.2 18:49:16 10° S 18:54:19 77° WSW 18:59:25 10° NNW visible
27 Feb 3.3 18:12:51 10° SE 18:17:39 46° ENE 18:22:30 10° N visible
27 Feb 5.7 19:53:24 10° SW 19:56:54 19° W 20:00:24 10° NW visible
28 Feb 4.3 19:15:08 10° S 19:19:54 42° W 19:24:43 10° NNW visible
01 Mar 3.0 18:38:03 10° SSE 18:43:07 84° ENE 18:48:12 10° N visible
02 Mar 5.3 19:41:34 10° SSW 19:45:35 24° W 19:49:38 10° NW visible
03 Mar 3.8 19:03:43 10° S 19:08:40 54° W 19:13:38 10° NNW visible
04 Mar 3.0 18:26:55 10° SSE 18:31:55 66° ENE 18:36:57 10° N visible
04 Mar 6.1 20:09:05 10° WSW 20:11:23 13° W 20:13:40 10° WNW visible
